KG1ZR Weather Reports


Display with metric or nautical units.
time (UTC)temp
F
wind
direction
speed
MPH
gust
MPH
rain 1hr
in
rain 24hr
in
rain mn
in
humidity
%
barometer
mb
20260506111401 53 205 0.0 2.0 0.00 0.01 0.00 76 1008.3
20260506110401 52 205 0.0 2.0 0.00 0.01 0.00 76 1008.5
20260506105401 52 205 0.0 2.0 0.00 0.01 0.00 76 1008.2
20260506104401 52 53 0.0 1.0 0.00 0.01 0.00 76 1008.2
20260506103401 52 53 0.0 2.0 0.00 0.01 0.00 75 1008.1
20260506102402 51 45 1.0 6.0 0.00 0.01 0.00 75 1008.3
20260506101401 51 140 1.0 6.0 0.00 0.01 0.00 75 1008.4
20260506100401 51 24 1.0 6.0 0.00 0.01 0.00 75 1008.5
20260506095401 51 142 2.0 6.0 0.00 0.01 0.00 75 1008.3
20260506094401 51 141 2.0 5.0 0.00 0.01 0.00 74 1008.2
20260506093401 51 138 2.0 3.0 0.00 0.01 0.00 74 1008.0
20260506092400 51 180 1.0 3.0 0.00 0.01 0.00 73 1008.0
20260506091401 51 305 0.0 2.0 0.00 0.01 0.00 74 1007.9
20260506090401 51 50 1.0 4.0 0.00 0.01 0.00 73 1007.7
20260506085401 50 117 2.0 5.0 0.00 0.01 0.00 73 1007.6
20260506084401 50 103 1.0 3.0 0.00 0.01 0.00 74 1008.0
20260506083401 50 103 1.0 3.0 0.00 0.01 0.00 75 1008.2
20260506082400 50 50 0.0 2.0 0.00 0.01 0.00 76 1008.3
20260506081401 51 50 0.0 0.0 0.00 0.01 0.00 76 1008.2
20260506081318 51 109 0.0 3.0 0.00 0.01 0.00 77 1008.1
20260506073357 52 333 1.0 3.0 0.00 0.01 0.00 78 1007.9
20260506072357 52 318 2.0 6.0 0.00 0.01 0.00 78 1007.4
20260506071357 52 198 3.0 6.0 0.00 0.01 0.00 78 1006.9
20260506070357 52 137 2.0 6.0 0.00 0.01 0.00 78 1006.7
20260506062357 53 157 5.0 11.0 0.00 0.01 0.00 78 1006.6
20260506061357 53 189 5.0 10.0 0.00 0.01 0.00 78 1006.7
20260506060350 53 239 4.0 8.0 0.00 0.01 0.00 78 1006.5
20260506051351 54 180 4.0 10.0 0.00 0.01 0.00 78 1006.4
20260506050351 55 194 5.0 10.0 0.00 0.01 0.00 78 1006.5
20260506044826 56 163 4.0 11.0 0.00 0.01 0.00 78 1006.7
20260506043823 56 273 4.0 8.0 0.00 0.01 0.00 78 1006.7
20260506042349 56 184 3.0 6.0 0.00 0.01 0.00 78 1006.5
20260506041349 57 159 3.0 6.0 0.00 0.01 0.00 77 1006.4
20260506040349 57 185 4.0 7.0 0.00 0.01 0.00 77 1006.1
20260506035348 58 194 3.0 6.0 0.00 0.01 0.01 77 1006.2
20260506034346 58 271 3.0 9.0 0.00 0.01 0.01 77 1006.1
20260506033346 58 173 4.0 9.0 0.00 0.01 0.01 77 1006.0
20260506032346 59 198 4.0 9.0 0.00 0.01 0.01 76 1006.1
20260506031827 59 223 3.0 7.0 0.00 0.01 0.01 76 1005.9
20260506030346 59 135 3.0 9.0 0.00 0.01 0.01 76 1006.2
20260506025346 59 200 2.0 6.0 0.00 0.01 0.01 77 1006.4
20260506024346 59 187 4.0 8.0 0.00 0.01 0.01 77 1006.2
20260506023345 59 207 4.0 8.0 0.00 0.01 0.01 77 1006.3
20260506022346 58 219 4.0 8.0 0.00 0.01 0.01 77 1006.4
20260506022255 58 169 3.0 8.0 0.00 0.01 0.01 77 1006.4
20260506020828 58 210 4.0 8.0 0.00 0.01 0.01 77 1006.5
20260506015346 58 224 3.0 8.0 0.00 0.01 0.01 77 1006.4
20260506014340 59 187 4.0 13.0 0.00 0.01 0.01 77 1006.6
20260506013340 60 123 6.0 13.0 0.00 0.01 0.01 77 1007.0
20260506012339 60 167 5.0 12.0 0.00 0.01 0.01 75 1006.5
20260506011339 60 165 3.0 7.0 0.00 0.01 0.01 73 1006.1
20260506010340 59 196 2.0 4.0 0.00 0.01 0.01 71 1005.8
20260506005339 59 164 1.0 2.0 0.00 0.01 0.01 71 1005.6
20260506004338 60 184 0.0 1.0 0.00 0.01 0.01 72 1005.5
20260506003338 60 184 0.0 2.0 0.00 0.01 0.01 73 1005.4
20260506002338 60 226 0.0 0.0 0.00 0.01 0.01 74 1005.4
20260506001332 61 226 0.0 3.0 0.01 0.01 0.01 76 1005.2
20260506000807 62 91 1.0 3.0 0.01 0.01 0.01 76 1004.8
20260505235329 63 150 0.0 4.0 0.01 0.01 0.01 77 1005.1
20260505234329 64 150 1.0 4.0 0.01 0.01 0.01 77 1005.4
20260505233329 64 200 1.0 4.0 0.01 0.01 0.01 76 1005.8
20260505232329 64 259 3.0 11.0 0.01 0.01 0.01 76 1006.0
20260505231805 64 269 3.0 11.0 0.00 0.00 0.00 75 1005.6
20260505230328 66 277 2.0 10.0 0.00 0.00 0.00 69 1005.2
20260505225813 67 233 4.0 14.0 0.00 0.00 0.00 63 1004.8
20260505224328 66 297 6.0 16.0 0.00 0.00 0.00 62 1004.9
20260505223329 66 242 8.0 16.0 0.00 0.00 0.00 61 1002.6
20260505222329 66 178 7.0 17.0 0.00 0.00 0.00 61 1002.5
20260505221328 67 180 6.0 18.0 0.00 0.00 0.00 61 1002.2
20260505220328 67 198 7.0 18.0 0.00 0.00 0.00 60 1002.1
20260505215329 67 192 6.0 17.0 0.00 0.00 0.00 60 1002.1
20260505214328 68 170 6.0 15.0 0.00 0.00 0.00 59 1002.0
20260505213329 68 154 6.0 14.0 0.00 0.00 0.00 59 1002.0
20260505212330 68 179 6.0 18.0 0.00 0.00 0.00 59 1002.0
20260505211329 69 148 8.0 17.0 0.00 0.00 0.00 60 1001.7
20260505210329 69 242 7.0 24.0 0.00 0.00 0.00 59 1001.8
20260505205329 70 215 7.0 24.0 0.00 0.00 0.00 58 1001.9
20260505204328 70 206 9.0 22.0 0.00 0.00 0.00 57 1002.0
20260505203329 70 210 7.0 22.0 0.00 0.00 0.00 55 1002.1
20260505202329 71 178 11.0 27.0 0.00 0.00 0.00 55 1001.9
20260505201329 71 195 10.0 27.0 0.00 0.00 0.00 54 1002.1
20260505200328 71 203 11.0 25.0 0.00 0.00 0.00 54 1002.0
20260505195330 72 187 12.0 27.0 0.00 0.00 0.00 54 1002.1
20260505194329 73 202 9.0 21.0 0.00 0.00 0.00 53 1002.2
20260505193328 73 111 7.0 23.0 0.00 0.00 0.00 53 1002.3
20260505192809 73 142 7.0 23.0 0.00 0.00 0.00 55 1002.3
20260505191808 73 186 8.0 22.0 0.00 0.00 0.00 53 1002.5
20260505190328 73 175 10.0 20.0 0.00 0.00 0.00 54 1002.6
20260505185328 74 210 9.0 18.0 0.00 0.00 0.00 54 1002.7
20260505184328 74 142 8.0 19.0 0.00 0.00 0.00 55 1002.8
20260505183325 74 225 7.0 18.0 0.00 0.00 0.00 53 1002.9
20260505182324 74 123 6.0 16.0 0.00 0.00 0.00 52 1003.0
20260505181800 74 149 6.0 14.0 0.00 0.00 0.00 58 1003.0
20260505180323 73 128 7.0 19.0 0.00 0.00 0.00 55 1003.2
20260505175324 73 168 7.0 16.0 0.00 0.00 0.00 54 1003.3
20260505174324 73 103 7.0 17.0 0.00 0.00 0.00 55 1003.4
20260505173322 72 181 7.0 15.0 0.00 0.01 0.00 57 1003.5
20260505172322 71 232 7.0 17.0 0.00 0.01 0.00 57 1003.9
20260505171318 71 146 7.0 17.0 0.00 0.01 0.00 57 1003.9
20260505170804 70 209 7.0 18.0 0.00 0.01 0.00 57 1004.1
20260505165318 70 225 8.0 19.0 0.00 0.02 0.00 56 1004.2
20260505164803 69 190 6.0 17.0 0.00 0.02 0.00 57 1004.5
20260505163759 69 213 6.0 17.0 0.00 0.02 0.00 61 1004.9
20260505162316 68 217 7.0 23.0 0.00 0.02 0.00 59 1004.9
20260505161316 68 193 9.0 23.0 0.00 0.02 0.00 57 1005.0
20260505160314 69 108 8.0 18.0 0.00 0.02 0.00 55 1005.0
20260505153314 69 111 5.0 14.0 0.00 0.02 0.00 59 1005.4
20260505152314 69 173 5.0 11.0 0.00 0.02 0.00 58 1005.9
20260505151314 69 199 5.0 12.0 0.00 0.02 0.00 57 1005.8
20260505150315 67 146 5.0 11.0 0.00 0.02 0.00 60 1005.8
20260505140305 64 132 6.0 15.0 0.00 0.02 0.00 60 1005.7
20260505130305 59 189 5.0 14.0 0.00 0.02 0.00 68 1006.2
20260505124305 58 229 4.0 10.0 0.00 0.02 0.00 69 1006.1
20260505123305 58 204 4.0 12.0 0.00 0.02 0.00 70 1006.3
20260505122306 57 178 5.0 12.0 0.00 0.02 0.00 70 1006.3
20260505121306 56 173 4.0 13.0 0.00 0.02 0.00 71 1006.3
20260505120745 56 193 7.0 13.0 0.00 0.02 0.00 72 1006.3
20260505115305 55 195 4.0 12.0 0.00 0.02 0.00 73 1006.6
20260505114305 54 192 5.0 9.0 0.00 0.02 0.00 74 1006.4
20260505113305 53 208 4.0 11.0 0.00 0.02 0.00 75 1006.6
20260505112305 53 252 4.0 11.0 0.00 0.02 0.00 76 1006.4